TimeCDT,TemperatureF,Dew PointF,Humidity,Sea Level PressureIn,VisibilityMPH,Wind Direction,Wind SpeedMPH,Gust SpeedMPH,PrecipitationIn,Events,Conditions,WindDirDegrees,DateUTC
12:15 AM,64.4,48.2,56,29.99,10.0,Calm,Calm,-,N/A,,Clear,0,2012-10-03 05:15:00
12:35 AM,60.8,50.0,68,29.98,10.0,Calm,Calm,-,N/A,,Clear,0,2012-10-03 05:35:00
12:55 AM,62.6,50.0,63,29.98,10.0,SSW,4.6,-,N/A,,Clear,210,2012-10-03 05:55:00
1:15 AM,60.8,50.0,68,29.98,10.0,SSW,4.6,-,N/A,,Clear,200,2012-10-03 06:15:00
1:35 AM,59.0,50.0,72,29.98,10.0,SSW,4.6,-,N/A,,Clear,200,2012-10-03 06:35:00
1:55 AM,59.0,50.0,72,29.98,10.0,SSW,5.8,-,N/A,,Clear,200,2012-10-03 06:55:00
2:15 AM,60.8,50.0,68,29.98,10.0,SSW,4.6,-,N/A,,Clear,210,2012-10-03 07:15:00
2:35 AM,59.0,50.0,72,29.98,10.0,SSW,4.6,-,N/A,,Clear,200,2012-10-03 07:35:00
2:55 AM,59.0,50.0,72,29.97,10.0,SSW,6.9,-,N/A,,Clear,200,2012-10-03 07:55:00
3:15 AM,55.4,50.0,82,29.97,10.0,SSW,6.9,-,N/A,,Clear,200,2012-10-03 08:15:00
3:35 AM,57.2,50.0,77,29.97,10.0,South,5.8,-,N/A,,Clear,180,2012-10-03 08:35:00
3:55 AM,55.4,50.0,82,29.96,10.0,SSW,6.9,-,N/A,,Clear,200,2012-10-03 08:55:00
4:15 AM,55.4,51.8,88,29.96,10.0,SSW,6.9,-,N/A,,Clear,200,2012-10-03 09:15:00
4:35 AM,55.4,51.8,88,29.96,10.0,South,6.9,-,N/A,,Clear,190,2012-10-03 09:35:00
4:55 AM,55.4,51.8,88,29.96,10.0,South,4.6,-,N/A,,Clear,180,2012-10-03 09:55:00
5:15 AM,55.4,51.8,88,29.96,10.0,SSW,5.8,-,N/A,,Clear,200,2012-10-03 10:15:00
5:35 AM,55.4,51.8,88,29.97,10.0,SSW,8.1,-,N/A,,Clear,200,2012-10-03 10:35:00
5:55 AM,57.2,51.8,82,29.97,10.0,SSW,8.1,-,N/A,,Clear,200,2012-10-03 10:55:00
6:15 AM,57.2,51.8,82,29.97,10.0,South,8.1,-,N/A,,Clear,190,2012-10-03 11:15:00
6:35 AM,57.2,51.8,82,29.97,10.0,South,6.9,-,N/A,,Clear,190,2012-10-03 11:35:00
6:55 AM,57.2,51.8,82,29.98,10.0,SSW,6.9,-,N/A,,Clear,200,2012-10-03 11:55:00
7:15 AM,59.0,51.8,77,29.99,10.0,South,8.1,-,N/A,,Clear,190,2012-10-03 12:15:00
7:35 AM,59.0,51.8,77,29.99,10.0,South,8.1,-,N/A,,Clear,190,2012-10-03 12:35:00
7:55 AM,59.0,51.8,77,29.99,10.0,South,8.1,-,N/A,,Clear,190,2012-10-03 12:55:00
8:15 AM,59.0,51.8,77,29.99,10.0,South,6.9,-,N/A,,Clear,190,2012-10-03 13:15:00
8:35 AM,60.8,51.8,72,29.99,10.0,SSW,9.2,-,N/A,,Clear,200,2012-10-03 13:35:00
8:55 AM,62.6,53.6,72,30.00,10.0,South,10.4,-,N/A,,Clear,190,2012-10-03 13:55:00
9:55 AM,69.8,53.6,56,30.02,10.0,South,9.2,-,N/A,,Clear,180,2012-10-03 14:55:00
10:15 AM,71.6,51.8,50,30.02,10.0,South,13.8,19.6,N/A,,Clear,180,2012-10-03 15:15:00
10:55 AM,73.4,50.0,44,30.02,10.0,South,15.0,20.7,N/A,,Clear,180,2012-10-03 15:55:00
11:15 AM,75.2,50.0,41,30.02,10.0,South,15.0,-,N/A,,Clear,190,2012-10-03 16:15:00
11:35 AM,77.0,50.0,39,30.02,10.0,South,12.7,-,N/A,,Clear,180,2012-10-03 16:35:00
11:55 AM,77.0,48.2,36,30.01,10.0,South,12.7,-,N/A,,Clear,190,2012-10-03 16:55:00
12:15 PM,78.8,48.2,34,30.00,10.0,SSE,15.0,-,N/A,,Clear,160,2012-10-03 17:15:00
12:35 PM,78.8,48.2,34,30.00,10.0,South,12.7,18.4,N/A,,Clear,190,2012-10-03 17:35:00
12:55 PM,80.6,48.2,32,29.99,10.0,South,11.5,18.4,N/A,,Clear,180,2012-10-03 17:55:00
1:15 PM,80.6,48.2,32,29.98,10.0,South,10.4,19.6,N/A,,Clear,170,2012-10-03 18:15:00
1:35 PM,82.4,48.2,30,29.97,10.0,South,6.9,17.3,N/A,,Clear,190,2012-10-03 18:35:00
1:55 PM,82.4,46.4,28,29.97,10.0,SSE,10.4,17.3,N/A,,Clear,160,2012-10-03 18:55:00
2:15 PM,82.4,46.4,28,29.96,10.0,SSE,8.1,17.3,N/A,,Clear,160,2012-10-03 19:15:00
2:35 PM,82.4,48.2,30,29.95,10.0,SSE,11.5,17.3,N/A,,Clear,150,2012-10-03 19:35:00
2:55 PM,82.4,46.4,28,29.95,10.0,SSE,9.2,18.4,N/A,,Clear,160,2012-10-03 19:55:00
3:15 PM,82.4,48.2,30,29.94,10.0,South,10.4,17.3,N/A,,Clear,170,2012-10-03 20:15:00
3:35 PM,82.4,48.2,30,29.94,10.0,SSE,12.7,18.4,N/A,,Clear,150,2012-10-03 20:35:00
3:55 PM,82.4,50.0,32,29.93,10.0,SSE,11.5,20.7,N/A,,Clear,160,2012-10-03 20:55:00
4:15 PM,82.4,50.0,32,29.93,10.0,South,13.8,20.7,N/A,,Clear,170,2012-10-03 21:15:00
4:35 PM,82.4,50.0,32,29.93,10.0,South,13.8,20.7,N/A,,Clear,170,2012-10-03 21:35:00
4:55 PM,82.4,50.0,32,29.93,10.0,South,13.8,17.3,N/A,,Clear,170,2012-10-03 21:55:00
5:15 PM,82.4,50.0,32,29.93,10.0,SSE,13.8,20.7,N/A,,Clear,150,2012-10-03 22:15:00
5:35 PM,82.4,50.0,32,29.93,10.0,South,15.0,21.9,N/A,,Clear,180,2012-10-03 22:35:00
5:55 PM,80.6,50.0,34,29.94,10.0,South,13.8,18.4,N/A,,Clear,180,2012-10-03 22:55:00
6:15 PM,80.6,50.0,34,29.94,10.0,South,12.7,18.4,N/A,,Clear,180,2012-10-03 23:15:00
6:35 PM,80.6,50.0,34,29.94,10.0,South,12.7,17.3,N/A,,Clear,170,2012-10-03 23:35:00
6:55 PM,78.8,51.8,39,29.94,10.0,South,9.2,-,N/A,,Clear,170,2012-10-03 23:55:00
7:15 PM,77.0,53.6,44,29.95,10.0,South,6.9,-,N/A,,Clear,170,2012-10-04 00:15:00
7:35 PM,73.4,53.6,50,29.96,10.0,SSE,6.9,-,N/A,,Clear,160,2012-10-04 00:35:00
7:55 PM,73.4,53.6,50,29.96,10.0,SSE,8.1,-,N/A,,Clear,160,2012-10-04 00:55:00
8:15 PM,71.6,53.6,53,29.97,10.0,SSE,5.8,-,N/A,,Clear,160,2012-10-04 01:15:00
8:35 PM,69.8,53.6,56,29.97,10.0,SSE,6.9,-,N/A,,Clear,150,2012-10-04 01:35:00
8:55 PM,69.8,53.6,56,29.97,10.0,SSE,9.2,-,N/A,,Clear,150,2012-10-04 01:55:00
9:15 PM,69.8,53.6,56,29.97,10.0,SSE,9.2,-,N/A,,Clear,150,2012-10-04 02:15:00
9:35 PM,69.8,53.6,56,29.97,10.0,SSE,9.2,-,N/A,,Clear,150,2012-10-04 02:35:00
10:15 PM,69.8,55.4,60,29.99,10.0,SSE,9.2,-,N/A,,Clear,160,2012-10-04 03:15:00
10:35 PM,68.0,55.4,64,29.99,10.0,SSE,6.9,-,N/A,,Clear,160,2012-10-04 03:35:00
10:55 PM,68.0,55.4,64,29.99,10.0,SSE,6.9,-,N/A,,Clear,160,2012-10-04 03:55:00
11:15 PM,68.0,55.4,64,29.99,10.0,SSE,6.9,-,N/A,,Clear,160,2012-10-04 04:15:00
11:35 PM,68.0,55.4,64,30.00,10.0,SSE,6.9,-,N/A,,Clear,160,2012-10-04 04:35:00
11:55 PM,68.0,55.4,64,30.00,10.0,SSE,8.1,-,N/A,,Clear,160,2012-10-04 04:55:00